Skip Page Navigation
NASA JPL Caltech
NASA Logo - Jet Propulsion Laboratory + View the NASA Portal
+ Center for Near-Earth Object Studies
JPL Home Earth Solar System Stars & Galaxies Technology
JPL Solar System Dynamics
BODIES ORBITS EPHEMERIDES TOOLS PHYSICAL DATA DISCOVERY FAQ SITE MAP
IMPORTANT: The SSD Announcement email list is now available. Major changes are coming in the near future, including possible hostname and/or URL changes. To be notified of such changes, subscribe to this email list.

Please visit this page for more details.


JPL Small-Body Database Browser
Search: [ help ]  
324242 (2006 BA161)
Classification: Main-belt Asteroid          SPK-ID: 2324242
Ephemeris | Orbit Diagram | Orbital Elements | Mission Design | Physical Parameters | Discovery Circumstances | Close-Approach Data ]

[ show orbit diagram ]
Orbital Elements at Epoch 2458600.5 (2019-Apr-27.0) TDB
Reference: JPL 11 (heliocentric ecliptic J2000)
 Element Value Uncertainty (1-sigma)   Units 
e .1599266741058523 5.8249e-08  
a 3.104816306606673 3.4891e-08 au
q 2.608273360981451 1.8627e-07 au
i 14.47609254011054 7.9492e-06 deg
node 159.6965619651642 2.5497e-05 deg
peri 96.15568857214375 3.6291e-05 deg
M 60.52388492926553 2.402e-05 deg
tp 2458264.548496535125
(2018-May-26.04849654)
0.0001324 TDB
period 1998.261370510189
5.47
3.3684e-05
9.222e-08
d
yr
n .1801566127998992 3.0368e-09 deg/d
Q 3.601359252231894 4.0471e-08 au
  Orbit Determination Parameters
   # obs. used (total)      171  
   data-arc span      5842 days (15.99 yr)  
   first obs. used      2002-06-23  
   last obs. used      2018-06-21  
   planetary ephem.      DE431  
   SB-pert. ephem.      SB431-N16  
   condition code      0  
   norm. resid. RMS      .56466  
   source      ORB  
   producer      Otto Matic  
   solution date      2019-Jul-14 06:46:52  

Additional Information
 Earth MOID = 1.64382 au 
 Jupiter MOID = 1.7112 au 
 T_jup = 3.153 
[ show covariance matrix ]

Ephemeris | Orbit Diagram | Orbital Elements | Mission Design | Physical Parameters | Discovery Circumstances | Close-Approach Data ]

Physical Parameter Table
Parameter Symbol Value Units Sigma Reference Notes
absolute magnitude H 15.5   n/a MPO455390  

324242 (2006 BA161)          Discovered 2006-Jan-26 by Spacewatch at Kitt Peak
Reference: 20120406/Numbers.arcLast Updated: 2012-04-09

[ show close-approach data ]
Ephemeris | Orbit Diagram | Orbital Elements | Mission Design | Physical Parameters | Discovery Circumstances | Close-Approach Data ]
ABOUT SSD CREDITS/AWARDS PRIVACY/COPYRIGHT GLOSSARY LINKS
FirstGov 2019-Oct-21 16:33 UT
(server date/time)  
NASA Home Page
Site Manager:   Ryan S. Park
Webmaster  Alan B. Chamberlin